| time (UTC) | temp F | wind direction | speed MPH | gust MPH | rain 1hr in | rain 24hr in | rain mn in | humidity % | barometer mb |
| 20260901024016 | 71 | 0.0 | 0.0 | 0.00 | 0.00 | 0.00 | 91 | 1021.6 | |
| 20260901023016 | 71 | 0.0 | 2.0 | 0.00 | 0.00 | 0.00 | 91 | 1021.5 | |
| 20260901022016 | 72 | 0.0 | 0.0 | 0.00 | 0.00 | 0.00 | 91 | 1021.7 | |
| 20260901021016 | 72 | 0.0 | 0.0 | 0.00 | 0.00 | 0.00 | 90 | 1021.5 | |
| 20260901020036 | 72 | 0.0 | 0.0 | 0.00 | 0.00 | 0.00 | 90 | 1021.5 | |
| 20260901015036 | 73 | 0.0 | 2.0 | 0.00 | 0.00 | 0.00 | 89 | 1021.5 | |
| 20260901014016 | 73 | 0.0 | 2.0 | 0.00 | 0.00 | 0.00 | 89 | 1021.3 | |
| 20260901013015 | 73 | 0.0 | 1.0 | 0.00 | 0.00 | 0.00 | 89 | 1021.1 | |
| 20260901012016 | 74 | 0.0 | 0.0 | 0.00 | 0.00 | 0.00 | 88 | 1021.2 | |
| 20260901011015 | 74 | 0.0 | 0.0 | 0.00 | 0.00 | 0.00 | 87 | 1021.0 | |
| 20260901010036 | 75 | 0.0 | 2.0 | 0.00 | 0.00 | 0.00 | 86 | 1020.8 | |
| 20260901005015 | 75 | 0.0 | 0.0 | 0.00 | 0.00 | 0.00 | 85 | 1020.8 | |
| 20260901004016 | 76 | 0.0 | 2.0 | 0.00 | 0.00 | 0.00 | 85 | 1020.8 | |
| 20260901003015 | 76 | 0.0 | 1.0 | 0.00 | 0.00 | 0.00 | 84 | 1020.8 | |
| 20260901002015 | 77 | 0.0 | 0.0 | 0.00 | 0.00 | 0.00 | 80 | 1020.6 | |
| 20260901001015 | 77 | 0.0 | 0.0 | 0.00 | 0.00 | 0.00 | 79 | 1020.7 | |
| 20260901000036 | 78 | 0.0 | 2.0 | 0.00 | 0.00 | 0.00 | 78 | 1020.5 | |
| 20260831235016 | 79 | 338 | 1.0 | 1.0 | 0.00 | 0.00 | 0.00 | 75 | 1020.5 |
| 20260831234015 | 80 | 0.0 | 1.0 | 0.00 | 0.00 | 0.00 | 74 | 1020.5 | |
| 20260831233015 | 81 | 0.0 | 2.0 | 0.00 | 0.00 | 0.00 | 75 | 1020.4 | |
| 20260831232018 | 82 | 315 | 1.0 | 1.0 | 0.00 | 0.00 | 0.00 | 73 | 1020.8 |
| 20260831231015 | 82 | 315 | 1.0 | 1.0 | 0.00 | 0.00 | 0.00 | 70 | 1020.9 |
| 20260831230037 | 83 | 315 | 1.0 | 1.0 | 0.00 | 0.00 | 0.00 | 69 | 1020.8 |
| 20260831225015 | 85 | 315 | 1.0 | 1.0 | 0.00 | 0.00 | 0.00 | 67 | 1021.0 |
| 20260831224017 | 87 | 338 | 1.0 | 1.0 | 0.00 | 0.00 | 0.00 | 64 | 1021.0 |
| 20260831223017 | 88 | 315 | 1.0 | 1.0 | 0.00 | 0.00 | 0.00 | 64 | 1021.4 |
| 20260831222017 | 88 | 0 | 1.0 | 2.0 | 0.00 | 0.00 | 0.00 | 61 | 1021.4 |
| 20260831221017 | 88 | 23 | 1.0 | 1.0 | 0.00 | 0.00 | 0.00 | 59 | 1021.3 |
| 20260831220037 | 88 | 0 | 1.0 | 2.0 | 0.00 | 0.00 | 0.00 | 61 | 1021.3 |
| 20260831215037 | 88 | 0 | 2.0 | 4.0 | 0.00 | 0.00 | 0.00 | 60 | 1021.3 |
| 20260831214017 | 88 | 0 | 2.0 | 3.0 | 0.00 | 0.00 | 0.00 | 59 | 1021.5 |
| 20260831213017 | 89 | 338 | 2.0 | 4.0 | 0.00 | 0.00 | 0.00 | 59 | 1021.4 |
| 20260831212017 | 89 | 338 | 3.0 | 7.0 | 0.00 | 0.00 | 0.00 | 58 | 1021.4 |
| 20260831211017 | 89 | 315 | 1.0 | 4.0 | 0.00 | 0.00 | 0.00 | 56 | 1021.4 |
| 20260831210037 | 89 | 0 | 2.0 | 3.0 | 0.00 | 0.00 | 0.00 | 58 | 1021.5 |
| 20260831205017 | 89 | 315 | 2.0 | 4.0 | 0.00 | 0.00 | 0.00 | 57 | 1021.6 |
| 20260831204057 | 89 | 315 | 2.0 | 4.0 | 0.00 | 0.00 | 0.00 | 56 | 1021.7 |
| 20260831203017 | 89 | 293 | 2.0 | 4.0 | 0.00 | 0.00 | 0.00 | 58 | 1021.9 |
| 20260831202017 | 89 | 23 | 1.0 | 3.0 | 0.00 | 0.00 | 0.00 | 59 | 1021.9 |
| 20260831201017 | 88 | 315 | 3.0 | 8.0 | 0.00 | 0.00 | 0.00 | 60 | 1022.1 |
| 20260831200017 | 88 | 315 | 3.0 | 7.0 | 0.00 | 0.00 | 0.00 | 61 | 1022.2 |
| 20260831195017 | 88 | 338 | 3.0 | 5.0 | 0.00 | 0.00 | 0.00 | 62 | 1022.3 |
| 20260831194027 | 89 | 315 | 6.0 | 10.0 | 0.00 | 0.00 | 0.00 | 60 | 1022.3 |
| 20260831193017 | 90 | 158 | 3.0 | 8.0 | 0.00 | 0.00 | 0.00 | 55 | 1022.4 |
| 20260831192017 | 90 | 315 | 3.0 | 6.0 | 0.00 | 0.00 | 0.00 | 53 | 1022.5 |
| 20260831191017 | 89 | 225 | 1.0 | 3.0 | 0.00 | 0.00 | 0.00 | 59 | 1022.7 |
| 20260831190017 | 88 | 0 | 2.0 | 4.0 | 0.00 | 0.00 | 0.00 | 60 | 1022.6 |
| 20260831185017 | 88 | 270 | 3.0 | 5.0 | 0.00 | 0.00 | 0.00 | 59 | 1022.8 |
| 20260831184017 | 89 | 23 | 2.0 | 4.0 | 0.00 | 0.00 | 0.00 | 58 | 1022.9 |
| 20260831183017 | 90 | 0 | 2.0 | 4.0 | 0.00 | 0.00 | 0.00 | 61 | 1023.1 |
| 20260831182037 | 89 | 113 | 2.0 | 4.0 | 0.00 | 0.00 | 0.00 | 56 | 1023.0 |
| 20260831181017 | 88 | 158 | 2.0 | 4.0 | 0.00 | 0.00 | 0.00 | 60 | 1023.2 |
| 20260831180017 | 88 | 135 | 1.0 | 3.0 | 0.00 | 0.00 | 0.00 | 58 | 1023.2 |
| 20260831175037 | 88 | 338 | 1.0 | 3.0 | 0.00 | 0.00 | 0.00 | 63 | 1023.3 |
| 20260831174017 | 87 | 203 | 1.0 | 3.0 | 0.00 | 0.00 | 0.00 | 59 | 1023.2 |
| 20260831173017 | 87 | 203 | 2.0 | 4.0 | 0.00 | 0.00 | 0.00 | 63 | 1023.4 |
| 20260831172017 | 86 | 68 | 2.0 | 5.0 | 0.00 | 0.00 | 0.00 | 69 | 1023.3 |
| 20260831171037 | 84 | 338 | 2.0 | 5.0 | 0.00 | 0.00 | 0.00 | 69 | 1023.4 |
| 20260831170017 | 84 | 0 | 2.0 | 3.0 | 0.00 | 0.00 | 0.00 | 71 | 1023.5 |
| 20260831165017 | 86 | 315 | 2.0 | 5.0 | 0.00 | 0.00 | 0.00 | 66 | 1023.7 |
| 20260831164017 | 85 | 203 | 2.0 | 3.0 | 0.00 | 0.00 | 0.00 | 70 | 1023.6 |
| 20260831163016 | 85 | 225 | 2.0 | 4.0 | 0.00 | 0.00 | 0.00 | 69 | 1023.7 |
| 20260831162016 | 85 | 270 | 2.0 | 6.0 | 0.00 | 0.00 | 0.00 | 68 | 1023.8 |
| 20260831161016 | 85 | 203 | 3.0 | 6.0 | 0.00 | 0.00 | 0.00 | 71 | 1023.8 |
| 20260831160016 | 84 | 180 | 4.0 | 9.0 | 0.00 | 0.00 | 0.00 | 69 | 1023.8 |
| 20260831155016 | 84 | 203 | 2.0 | 5.0 | 0.00 | 0.00 | 0.00 | 71 | 1023.6 |
| 20260831154017 | 84 | 225 | 2.0 | 4.0 | 0.00 | 0.00 | 0.00 | 70 | 1023.8 |
| 20260831153016 | 83 | 203 | 3.0 | 6.0 | 0.00 | 0.00 | 0.00 | 69 | 1023.9 |
| 20260831152016 | 83 | 203 | 3.0 | 5.0 | 0.00 | 0.00 | 0.00 | 71 | 1023.8 |
| 20260831151016 | 83 | 180 | 2.0 | 6.0 | 0.00 | 0.00 | 0.00 | 71 | 1023.7 |
| 20260831150016 | 82 | 225 | 3.0 | 7.0 | 0.00 | 0.00 | 0.00 | 71 | 1023.7 |
| 20260831145016 | 82 | 203 | 3.0 | 6.0 | 0.00 | 0.00 | 0.00 | 70 | 1023.7 |
| 20260831144017 | 81 | 203 | 3.0 | 7.0 | 0.00 | 0.00 | 0.00 | 75 | 1023.6 |
| 20260831143016 | 81 | 180 | 2.0 | 4.0 | 0.00 | 0.00 | 0.00 | 74 | 1023.4 |
| 20260831142016 | 81 | 203 | 2.0 | 4.0 | 0.00 | 0.00 | 0.00 | 76 | 1023.6 |
| 20260831141016 | 80 | 203 | 2.0 | 3.0 | 0.00 | 0.00 | 0.00 | 76 | 1023.5 |
| 20260831140016 | 80 | 180 | 1.0 | 4.0 | 0.00 | 0.00 | 0.00 | 79 | 1023.4 |
| 20260831135016 | 80 | 180 | 1.0 | 4.0 | 0.00 | 0.00 | 0.00 | 77 | 1023.7 |
| 20260831134016 | 79 | 0.0 | 2.0 | 0.00 | 0.00 | 0.00 | 80 | 1023.7 | |
| 20260831133056 | 78 | 158 | 1.0 | 2.0 | 0.00 | 0.00 | 0.00 | 80 | 1023.5 |
| 20260831132016 | 78 | 0.0 | 2.0 | 0.00 | 0.00 | 0.00 | 84 | 1023.7 | |
| 20260831131036 | 76 | 0.0 | 1.0 | 0.00 | 0.00 | 0.00 | 85 | 1023.5 | |
| 20260831130036 | 74 | 0.0 | 2.0 | 0.00 | 0.00 | 0.00 | 89 | 1023.4 | |
| 20260831125016 | 72 | 0.0 | 0.0 | 0.00 | 0.00 | 0.00 | 91 | 1023.3 | |
| 20260831124016 | 71 | 0.0 | 2.0 | 0.00 | 0.00 | 0.00 | 92 | 1023.3 | |
| 20260831123036 | 71 | 0.0 | 2.0 | 0.00 | 0.00 | 0.00 | 92 | 1023.1 | |
| 20260831122016 | 70 | 0.0 | 2.0 | 0.00 | 0.00 | 0.00 | 93 | 1023.2 | |
| 20260831121016 | 69 | 0.0 | 2.0 | 0.00 | 0.00 | 0.00 | 95 | 1023.0 | |
| 20260831120016 | 68 | 0.0 | 0.0 | 0.00 | 0.00 | 0.00 | 96 | 1022.9 | |
| 20260831115016 | 67 | 0.0 | 2.0 | 0.00 | 0.00 | 0.00 | 95 | 1022.8 | |
| 20260831114016 | 66 | 0.0 | 1.0 | 0.00 | 0.00 | 0.00 | 95 | 1022.7 | |
| 20260831113016 | 66 | 0.0 | 2.0 | 0.00 | 0.00 | 0.00 | 95 | 1022.6 | |
| 20260831112016 | 66 | 0.0 | 2.0 | 0.00 | 0.00 | 0.00 | 95 | 1022.7 | |
| 20260831111016 | 66 | 0.0 | 0.0 | 0.00 | 0.00 | 0.00 | 95 | 1022.6 | |
| 20260831110018 | 66 | 0.0 | 0.0 | 0.00 | 0.00 | 0.00 | 95 | 1022.6 | |
| 20260831105036 | 67 | 0.0 | 2.0 | 0.00 | 0.00 | 0.00 | 95 | 1022.7 | |
| 20260831104016 | 66 | 0 | 1.0 | 2.0 | 0.00 | 0.00 | 0.00 | 95 | 1022.5 |
| 20260831103016 | 66 | 0.0 | 2.0 | 0.00 | 0.00 | 0.00 | 95 | 1022.4 | |
| 20260831102016 | 66 | 0.0 | 1.0 | 0.00 | 0.00 | 0.00 | 95 | 1022.5 | |
| 20260831101016 | 66 | 0.0 | 2.0 | 0.00 | 0.00 | 0.00 | 95 | 1022.4 | |
| 20260831100016 | 66 | 0.0 | 2.0 | 0.00 | 0.00 | 0.00 | 94 | 1022.4 | |
| 20260831095016 | 66 | 0.0 | 1.0 | 0.00 | 0.00 | 0.00 | 94 | 1022.1 | |
| 20260831094036 | 66 | 0.0 | 2.0 | 0.00 | 0.00 | 0.00 | 95 | 1022.0 | |
| 20260831093016 | 66 | 0.0 | 2.0 | 0.00 | 0.00 | 0.00 | 94 | 1022.0 | |
| 20260831092016 | 66 | 0.0 | 0.0 | 0.00 | 0.00 | 0.00 | 94 | 1022.1 | |
| 20260831091016 | 66 | 0.0 | 1.0 | 0.00 | 0.00 | 0.00 | 94 | 1022.0 | |
| 20260831090015 | 66 | 0.0 | 2.0 | 0.00 | 0.00 | 0.00 | 94 | 1022.1 | |
| 20260831085015 | 66 | 0.0 | 2.0 | 0.00 | 0.00 | 0.00 | 94 | 1022.0 | |
| 20260831084016 | 66 | 0.0 | 2.0 | 0.00 | 0.00 | 0.00 | 94 | 1021.9 | |
| 20260831083015 | 66 | 0.0 | 2.0 | 0.00 | 0.00 | 0.00 | 94 | 1021.8 | |
| 20260831082015 | 66 | 0.0 | 2.0 | 0.00 | 0.00 | 0.00 | 94 | 1021.9 | |
| 20260831081016 | 67 | 0.0 | 2.0 | 0.00 | 0.00 | 0.00 | 94 | 1021.9 | |
| 20260831080035 | 66 | 23 | 1.0 | 1.0 | 0.00 | 0.00 | 0.00 | 94 | 1021.9 |
| 20260831075039 | 66 | 0.0 | 2.0 | 0.00 | 0.00 | 0.00 | 93 | 1022.0 | |
| 20260831074018 | 67 | 0 | 1.0 | 2.0 | 0.00 | 0.00 | 0.00 | 93 | 1022.0 |
| 20260831073019 | 67 | 0.0 | 0.0 | 0.00 | 0.00 | 0.00 | 93 | 1021.8 | |
| 20260831072015 | 67 | 0.0 | 1.0 | 0.00 | 0.00 | 0.00 | 93 | 1021.8 | |
| 20260831071017 | 67 | 0.0 | 2.0 | 0.00 | 0.00 | 0.00 | 93 | 1021.8 | |
| 20260831070015 | 67 | 0 | 1.0 | 1.0 | 0.00 | 0.00 | 0.00 | 92 | 1021.8 |
| 20260831065017 | 67 | 0.0 | 0.0 | 0.00 | 0.00 | 0.00 | 92 | 1022.0 | |
| 20260831064017 | 67 | 0.0 | 1.0 | 0.00 | 0.00 | 0.00 | 92 | 1021.9 | |
| 20260831063023 | 67 | 0.0 | 0.0 | 0.00 | 0.00 | 0.00 | 91 | 1021.9 | |
| 20260831062037 | 68 | 0.0 | 0.0 | 0.00 | 0.00 | 0.00 | 91 | 1021.8 | |
| 20260831061017 | 68 | 0.0 | 1.0 | 0.00 | 0.00 | 0.00 | 92 | 1022.0 | |
| 20260831060017 | 68 | 0.0 | 1.0 | 0.00 | 0.00 | 0.00 | 91 | 1022.0 | |
| 20260831055017 | 68 | 0 | 1.0 | 1.0 | 0.00 | 0.00 | 0.00 | 91 | 1022.0 |
| 20260831054017 | 68 | 0.0 | 1.0 | 0.00 | 0.00 | 0.00 | 91 | 1022.1 | |
| 20260831053017 | 68 | 0.0 | 0.0 | 0.00 | 0.00 | 0.00 | 90 | 1022.1 | |
| 20260831052017 | 68 | 0.0 | 2.0 | 0.00 | 0.00 | 0.00 | 90 | 1022.2 | |
| 20260831051017 | 69 | 0.0 | 1.0 | 0.00 | 0.00 | 0.00 | 90 | 1022.1 | |
| 20260831050017 | 68 | 0.0 | 1.0 | 0.00 | 0.00 | 0.00 | 90 | 1022.0 | |
| 20260831045017 | 69 | 0.0 | 2.0 | 0.00 | 0.00 | 0.00 | 90 | 1022.0 | |
| 20260831044018 | 69 | 0.0 | 2.0 | 0.00 | 0.00 | 0.00 | 90 | 1022.0 | |
| 20260831043017 | 69 | 0.0 | 2.0 | 0.00 | 0.00 | 0.00 | 90 | 1022.0 | |
| 20260831042037 | 68 | 0.0 | 0.0 | 0.00 | 0.00 | 0.00 | 90 | 1021.8 | |
| 20260831041017 | 69 | 0.0 | 2.0 | 0.00 | 0.00 | 0.00 | 90 | 1021.9 | |
| 20260831040017 | 69 | 0 | 1.0 | 1.0 | 0.00 | 0.00 | 0.00 | 90 | 1021.9 |
| 20260831035016 | 69 | 0.0 | 0.0 | 0.00 | 0.00 | 0.00 | 90 | 1021.9 | |
| 20260831034016 | 69 | 0.0 | 0.0 | 0.00 | 0.00 | 0.00 | 90 | 1021.8 | |
| 20260831033018 | 69 | 0.0 | 0.0 | 0.00 | 0.00 | 0.00 | 90 | 1021.7 | |
| 20260831032019 | 69 | 0.0 | 0.0 | 0.00 | 0.00 | 0.00 | 89 | 1021.7 | |
| 20260831031021 | 69 | 0.0 | 1.0 | 0.00 | 0.00 | 0.00 | 89 | 1021.9 | |
| 20260831030016 | 70 | 0.0 | 0.0 | 0.00 | 0.00 | 0.00 | 89 | 1021.9 | |
| 20260831025016 | 70 | 0.0 | 0.0 | 0.00 | 0.00 | 0.00 | 88 | 1021.9 |